Dewpoint
64 64 62 61 62 63 64 64 63 64 65 64 63 64 63 64 65 64 63 64 64 64 64 65 65 65 64 64 65 65 65 67 68 67 67 67 68 67 66 67 67 70
63 63 63 63 63 63 63 63 64 65 65 64 64 64 64 64 63 63 63 63 63 63 64 64 64 65 64 63 64 63 64 66 67 65 66 68 67 67 67 69 70 71
62 61 61 61 60 60 61 63 65 64 64 63 64 64 63 63 63 63 64 63 63 63 63 63 64 64 63 64 64 64 63 64 65 66 67 67 66 67 67 68 70 69
63 62 61 61 61 60 61 63 64 64 63 62 62 62 62 63 64 63 63 64 63 63 63 62 63 63 64 64 64 63 62 63 64 65 67 68 68 66 63 65 68 69
62 62 63 62 61 62 63 63 63 63 63 62 63 63 63 64 64 62 62 62 64 63 61 62 62 63 64 64 65 64 65 63 61 62 62 62 64 64 65 67 67 64
63 63 63 62 62 61 61 61 62 62 63 62 62 62 62 62 63 63 63 62 61 61 62 62 62 62 62 64 65 66 66 62 62 62 62 62 61 61 61 63 63 63
62 63 62 62 61 61 61 62 62 62 62 63 63 63 63 62 63 64 64 64 65 65 65 65 65 64 64 65 66 65 64 64 64 63 62 63 63 63 63 63 62 61
62 62 61 61 60 60 61 62 62 61 62 63 62 63 63 62 64 63 64 64 64 65 66 67 67 65 64 65 64 66 65 64 64 64 63 62 62 61 63 63 62 63
63 62 62 61 60 60 58 57 56 59 60 61 61 61 62 63 63 63 64 65 65 65 67 68 67 65 64 64 65 65 65 64 64 65 63 62 60 60 60 60 61 62
63 62 61 59 57 58 58 57 56 57 58 59 60 60 61 63 64 64 65 66 66 66 67 67 66 66 65 63 64 64 64 65 64 64 63 61 60 60 60 60 61 61
63 61 60 59 59 56 57 55 53 54 57 59 60 61 63 63 63 64 65 66 66 66 66 66 65 64 65 65 65 65 64 63 64 65 64 60 59 60 59 60 60 59
62 61 59 59 58 58 57 58 58 59 57 54 56 55 57 56 58 59 63 65 66 65 66 66 66 66 66 66 64 64 64 64 64 63 61 59 59 59 59 59 59 60
60 60 59 58 58 58 59 57 56 54 54 56 55 55 54 55 57 58 59 63 65 65 64 64 65 66 66 66 66 64 63 63 63 63 60 59 60 59 58 58 58 59
60 60 59 59 59 60 59 59 59 59 60 59 57 55 52 54 54 57 57 58 59 61 64 65 66 66 66 66 66 64 63 63 62 61 60 59 59 58 58 58 58 59
61 60 59 59 59 60 60 60 60 60 60 58 57 56 55 54 56 57 58 59 60 61 64 66 65 65 66 65 64 62 62 62 62 62 60 58 59 59 58 58 59 60
61 61 61 60 60 60 61 61 59 59 58 57 57 55 56 57 59 60 58 59 59 60 62 65 65 66 64 63 61 62 62 62 61 62 62 60 59 58 57 57 57 59
61 61 61 60 60 60 60 61 61 59 58 57 57 58 57 60 59 59 57 57 57 59 61 64 64 65 63 60 60 61 63 62 61 61 61 60 58 58 58 58 58 59
60 60 60 59 59 60 61 61 60 59 58 58 57 56 57 57 57 58 59 59 59 60 61 63 63 63 60 60 60 60 60 64 61 60 61 61 59 59 58 58 59 58
61 60 59 60 60 60 61 60 60 59 57 56 55 56 56 57 58 57 58 58 59 59 59 60 60 62 59 59 59 59 59 62 61 60 61 61 61 61 59 58 59 60
59 59 59 59 60 60 61 61 59 58 57 55 54 56 56 56 56 57 57 58 57 57 58 59 61 60 60 59 58 58 59 60 62 60 60 61 62 62 61 60 60 60
59 59 59 60 61 61 61 61 59 57 56 55 53 53 54 56 56 56 57 57 56 55 55 55 56 60 59 59 58 57 57 59 63 60 61 61 62 62 61 62 61 60
59 59 60 62 61 61 61 60 57 56 56 55 56 55 56 55 56 57 58 58 57 56 55 57 54 59 58 58 57 57 57 64 60 59 60 60 62 63 63 63 62 61
58 58 59 59 59 59 60 58 56 55 54 55 56 55 53 52 54 52 56 59 60 60 57 57 57 59 56 56 56 56 57 62 58 57 59 61 63 63 64 62 62 62
59 59 58 58 59 59 58 56 54 55 54 57 55 53 52 53 54 51 53 59 58 57 56 59 55 55 54 53 53 55 59 63 59 57 58 61 62 64 65 63 63 62
58 58 58 57 58 57 57 55 56 56 55 58 57 56 57 61 58 58 59 61 54 52 57 58 58 56 52 53 53 54 59 65 63 59 59 60 60 64 65 64 63 62
59 59 59 59 58 58 59 59 59 57 56 55 55 53 55 57 60 58 58 59 59 59 59 54 57 60 57 53 53 53 54 65 63 61 60 60 61 64 65 63 64 63